PACCTY-2 Weather Reports


time (UTC)temp
C
wind
direction
speed
KPH
gust
KPH
rain 1hr
cm
rain 24hr
cm
rain mn
cm
humidity
%
barometer
mb
20260503192957 15 303 4.8 12.9 0.00 0.03 0.03
20260503192457 15 305 0.0 12.9 0.00 0.03 0.03
20260503191955 15 287 6.4 12.9 0.00 0.03 0.03
20260503185951 15 288 8.0 11.3 0.00 0.03 0.03
20260503185450 15 281 9.7 11.3 0.00 0.03 0.03
20260503184950 15 282 9.7 9.7 0.00 0.03 0.03
20260503183947 15 275 8.0 9.7 0.00 0.03 0.03
20260503183446 15 268 6.4 9.7 0.00 0.03 0.03
20260503182947 15 274 8.0 9.7 0.00 0.03 0.03
20260503182444 15 282 8.0 9.7 0.00 0.03 0.03
20260503181943 15 264 6.4 9.7 0.00 0.03 0.03
20260503181442 15 274 6.4 8.0 0.00 0.03 0.03
20260503180941 15 250 6.4 12.9 0.00 0.03 0.03
20260503180440 15 256 6.4 12.9 0.00 0.03 0.03
20260503174937 15 267 11.3 12.9 0.00 0.03 0.03
20260503174437 16 243 11.3 12.9 0.00 0.03 0.03
20260503174028 16 260 9.7 12.9 0.00 0.03 0.03
20260503173935 16 260 9.7 12.9 0.00 0.03 0.03
20260503173434 15 253 8.0 12.9 0.00 0.03 0.03
20260503172933 16 268 6.4 11.3 0.00 0.03 0.03
20260503172432 15 9 8.0 11.3 0.00 0.03 0.03
20260503171430 15 357 11.3 14.5 0.00 0.03 0.03
20260503170428 14 14 8.0 12.9 0.00 0.03 0.03
20260503150905 11 352 4.8 9.7 0.00 0.03 0.03
20260503150404 11 338 1.6 6.4 0.00 0.03 0.03
20260503131342 10 0 0.0 0.0 0.03 0.03 0.03
20260503130841 10 0 0.0 0.0 0.03 0.03 0.03
20260503130341 9 0 0.0 0.0 0.03 0.03 0.03
20260503110817 10 0 0.0 0.0 0.00 0.00 0.00
20260503110316 10 0 0.0 0.0 0.00 0.00 0.00
20260503090252 9 0 0.0 0.0 0.00 0.03 0.00
20260503080741 10 0 0.0 0.0 0.00 0.03 0.00
20260503080356 10 0 0.0 0.0 0.00 0.03 0.00
20260503080240 10 0 0.0 0.0 0.00 0.03 0.00
20260503072232 10 0 0.0 6.4 0.00 0.03 0.00
20260503071231 10 159 0.0 6.4 0.00 0.03 0.00
20260503060216 10 0 0.0 0.0 0.00 0.03 0.00
20260503054714 11 0 0.0 0.0 0.00 0.03 0.00
20260503053712 11 0 0.0 0.0 0.00 0.03 0.00
20260503053211 11 0 0.0 0.0 0.00 0.03 0.00
20260503052709 11 0 0.0 0.0 0.00 0.03 0.00
20260503052208 11 0 0.0 0.0 0.00 0.03 0.00
20260503051707 11 0 0.0 6.4 0.00 0.03 0.00
20260503051207 11 193 0.0 6.4 0.00 0.03 0.00
20260503050706 11 201 0.0 6.4 0.00 0.03 0.00
20260503045703 11 0 0.0 0.0 0.00 0.03 0.00
20260503042658 11 0 0.0 0.0 0.00 0.03 0.00
20260503035151 11 336 0.0 9.7 0.00 0.03 0.00